Location: Arbon
(43.0005°N, 0.7472°E)
Time: 21:35:26
(UTC+00:00)

Courier 1B Rocket - Pass Details

Date: 02 December 2020
Orbit: 920 x 1202 km, 28.2° (Epoch: 23 January)

Event Time Altitude Azimuth Distance (km) Brightness Sun altitude
Exits shadow 02:50:34 10° 139° (SE) 3,087 7.8 -46.6°
Drops below altitude 10° 02:50:55 10° 136° (SE) 3,120 7.8 -46.5°
Sets 02:56:20 0° 106° (ESE) 4,095 8.9 -45.6°
